カタログに戻る

STARLINK-1365

運用中通信VLEO
NORAD 45590·PAYLOAD·🇺🇸 United States

打ち上げ Apr 22, 2020 から Cape Canaveral Space Force Station

Loading…

次のパス (今後24時間)

TLE

最新Source: CelesTrak SupGP

元期: Sep 14, 2026, 21:09 UTC

1 45590C 20025BM  26257.88173611  .00110000  00000+0  72547-3 0  2575
2 45590  53.0386 250.3395 0004188  44.7721 135.4022 15.74870875    13

AllMySatでSTARLINK-1365をリアルタイム追跡

Download on the App Store